Location: Newark
(52.0178°N, 4.7453°W)
Time: 04:11:01
(UTC+00:00)

Envisat - Visible Passes

Search period start: 21 March 2019 00:00
Search period end: 31 March 2019 00:00
Orbit: 764 x 766 km, 98.2° (Epoch: 20 March)

Date Brightness Start Highest point End Pass type
(mag) Time Alt. Az. Time Alt. Az. Time Alt. Az.
21 Mar 4.2 19:18:39 10° S 19:23:31 46° W 19:28:26 10° NNW visible
22 Mar 5.9 20:23:31 10° WSW 20:26:27 15° W 20:29:23 10° NW visible
23 Mar 5.1 19:44:51 10° SSW 19:49:15 29° W 19:53:41 10° NNW visible
24 Mar 3.8 19:07:16 10° S 19:12:15 56° W 19:17:17 10° NNW visible
25 Mar 5.8 20:11:34 10° SW 20:15:04 19° W 20:18:36 10° NW visible
26 Mar 4.8 19:33:18 10° SSW 19:37:56 35° W 19:42:36 10° NNW visible
27 Mar 6.2 20:39:27 10° W 20:41:00 11° W 20:42:34 10° WNW visible
28 Mar 5.6 19:59:46 10° SW 20:03:43 22° W 20:07:42 10° NW visible
29 Mar 4.4 19:21:49 10° S 19:26:38 43° W 19:31:29 10° NNW visible
30 Mar 6.0 20:26:59 10° WSW 20:29:37 14° W 20:32:15 10° NW visible
